This is the latest recevied weather packets stored in our database for station/object W5ZYX. If no packets are shown the sender has not sent any weather packets the latest 10 day(s).
| Time | Temp. | Humidity | Pressure | Rain* | Wind** | Luminosity | Snow |
|---|---|---|---|---|---|---|---|
| 1777500046 | 22.78° C | 89% | 1010.8 hPa | 0 mm | - | - | - |
| 1777499736 | 23.33° C | 89% | 1010.9 hPa | 0 mm | - | - | - |
| 1777499440 | 23.89° C | 88% | 1010.9 hPa | 0 mm | - | - | - |
| 1777499152 | 25° C | 87% | 1010.9 hPa | 0 mm | - | - | - |
| 1777498836 | 26.11° C | 90% | 1010.9 hPa | 0 mm | - | - | - |
| 1777498536 | 25.56° C | 90% | 1011 hPa | 0 mm | - | - | - |
| 1777498254 | 25.56° C | 89% | 1010.9 hPa | 0 mm | - | - | - |
| 1777497938 | 25.56° C | 89% | 1011 hPa | 0 mm | - | - | - |
| 1777497639 | 25.56° C | 88% | 1011.2 hPa | 0 mm | - | - | - |
| 1777497353 | 25.56° C | 88% | 1011.1 hPa | 0 mm | - | - | - |
| 1777497038 | 25.56° C | 88% | 1011.3 hPa | 0 mm | - | - | - |
| 1777496738 | 26.11° C | 88% | 1011.5 hPa | 0 mm | - | - | - |
| 1777496454 | 26.11° C | 88% | 1011.4 hPa | 0 mm | - | - | - |
| 1777496136 | 26.11° C | 87% | 1011.5 hPa | 0 mm | - | - | - |
| 1777495836 | 26.11° C | 88% | 1011.4 hPa | 0 mm | - | - | - |
| 1777495566 | 26.11° C | 88% | 1011.3 hPa | 0 mm | - | - | - |
| 1777495240 | 26.11° C | 88% | 1011.2 hPa | 0 mm | - | - | - |
| 1777494939 | 26.11° C | 88% | 1011.1 hPa | 0 mm | - | - | - |
| 1777494663 | 26.11° C | 88% | 1011.2 hPa | 0 mm | - | - | - |
| 1777494338 | 26.11° C | 88% | 1011 hPa | 0 mm | - | - | - |
| 1777494039 | 26.11° C | 88% | 1011 hPa | 0 mm | - | - | - |
| 1777493756 | 26.11° C | 88% | 1011.1 hPa | 0 mm | - | - | - |
| 1777493439 | 26.11° C | 87% | 1011.3 hPa | 0 mm | - | - | - |
| 1777493139 | 26.11° C | 87% | 1011.3 hPa | 0 mm | - | - | - |
| 1777492852 | 26.11° C | 86% | 1011.3 hPa | 0 mm | - | - | - |
* Rain latest hour (hover to see other rain measurements)
** Current wind speed in m/s (hover to see current wind gust speed)